Satellite-Ground Cal/Val Region Overpasses Predictions

Prediction of Satellite NPP Overpassing Cal/Val Region: PacNW

Region Location: (Latitude: 10.00, Longitude: 139.50) to (Latitude: 22.70, Longitude: 165.60).

Table of predicted overpasses for the next 14.0 days since TLE Epoch: 1/11/2013
Interval Starting Time Starting Location Ending Time Ending Location
1 01/11/2013 14:56:18 ( 22.67, 160.38) 01/11/2013 14:59:53 ( 10.05, 157.38)
2 01/12/2013 02:08:10 ( 19.83, 165.60) 01/12/2013 02:08:58 ( 22.64, 164.90)
3 01/12/2013 03:46:53 ( 10.03, 142.53) 01/12/2013 03:50:28 ( 22.65, 139.52)
4 01/12/2013 14:37:16 ( 22.67, 165.14) 01/12/2013 14:40:51 ( 10.05, 162.14)
5 01/12/2013 16:18:46 ( 22.67, 139.77) 01/12/2013 16:19:04 ( 21.61, 139.50)
6 01/13/2013 03:27:51 ( 10.03, 147.29) 01/13/2013 03:31:26 ( 22.65, 144.29)
7 01/13/2013 15:59:44 ( 22.67, 144.53) 01/13/2013 16:03:19 ( 10.05, 141.53)
8 01/14/2013 03:08:48 ( 10.02, 152.05) 01/14/2013 03:12:23 ( 22.64, 149.05)
9 01/14/2013 15:40:41 ( 22.67, 149.29) 01/14/2013 15:44:16 ( 10.05, 146.29)
10 01/15/2013 02:49:46 ( 10.02, 156.81) 01/15/2013 02:53:22 ( 22.70, 153.79)
11 01/15/2013 15:21:39 ( 22.68, 154.05) 01/15/2013 15:25:14 ( 10.05, 151.05)
12 01/16/2013 02:30:43 ( 10.02, 161.57) 01/16/2013 02:34:19 ( 22.70, 158.56)
13 01/16/2013 15:02:36 ( 22.68, 158.81) 01/16/2013 15:06:11 ( 10.05, 155.81)
14 01/17/2013 02:12:36 ( 13.25, 165.59) 01/17/2013 02:15:17 ( 22.69, 163.32)
15 01/17/2013 03:53:11 ( 10.02, 140.96) 01/17/2013 03:54:57 ( 16.25, 139.51)
16 01/17/2013 14:43:34 ( 22.68, 163.58) 01/17/2013 14:47:09 ( 10.06, 160.57)
17 01/18/2013 03:34:08 ( 10.02, 145.72) 01/18/2013 03:37:43 ( 22.64, 142.72)
18 01/18/2013 14:27:47 ( 11.17, 165.59) 01/18/2013 14:28:06 ( 10.06, 165.33)
19 01/18/2013 16:06:01 ( 22.67, 142.96) 01/18/2013 16:09:36 ( 10.05, 139.96)
20 01/19/2013 03:15:06 ( 10.02, 150.48) 01/19/2013 03:18:41 ( 22.64, 147.48)
21 01/19/2013 15:46:59 ( 22.67, 147.72) 01/19/2013 15:50:34 ( 10.05, 144.72)
22 01/20/2013 02:56:03 ( 10.02, 155.24) 01/20/2013 02:59:38 ( 22.64, 152.24)
23
